Estherville, IA

3:15 PM CDT on June 26, 2017 (GMT -0500)
Estherville Municipal

Weather History for KEST - November, 2012

Change the Weather History Date:

Tuesday, November 20, 2012

  Actual Average Record
Temperature  
Mean Temperature 43 °F 30 °F  
Max Temperature 59 °F 39 °F 62 °F (1989)
Min Temperature 26 °F 21 °F -2 °F (2014)
Degree Days  
Heating Degree Days 22 35  
Month to date heating degree days 481 591  
Since 1 July heating degree days 1260 1340  
Cooling Degree Days 0 0  
Month to date cooling degree days 0 0  
Year to date cooling degree days 886 593  
Moisture  
Dew Point 28 °F    
Average Humidity 58    
Maximum Humidity 92    
Minimum Humidity 23    
Precipitation  
Precipitation 0.00 in 0.06 in 1.25 in (1953)
Month to date precipitation 0.75 1.14  
Sea Level Pressure  
Sea Level Pressure 30.15 in    
Wind  
Wind Speed 8 mph (West)    
Max Wind Speed 15 mph    
Max Gust Speed 22 mph    
Visibility 7 miles    
Events      
T = Trace of Precipitation, MM = Missing Value Source: NWS Daily Summary

Daily Weather History Graph

Daily Weather History Graph

Search for Another Location

Airport or City:

Trip Planner

Search our weather history database for the weather conditions in past years. The results will help you decide how hot, cold, wet, or windy it might be!

Date:

Astronomy

Nov. 20, 2012 Rise Set
Actual Time 7:19 AM CST 4:49 PM CST
Civil Twilight 6:48 AM CST 5:20 PM CST
Nautical Twilight 6:13 AM CST 5:55 PM CST
Astronomical Twilight 5:39 AM CST 6:29 PM CST
Moon 12:48 PM CST (11/20) No Moon Set
Length of Visible Light 10h 32m
Length of Day
9h 30m
First Quarter, 51% of the Moon is Illuminated
Nov 20
First Quarter
Nov 28
Full
Dec 6
Last Quarter
Dec 13
New
Dec 19
First Quarter

Hourly Weather History & Observations

Time (CST) Temp. Windchill Dew Point Humidity Pressure Visibility Wind Dir Wind Speed Gust Speed Precip Events Conditions
12:52 AM 36.0 °F 29.6 °F 33.1 °F 89% 30.12 in 6.0 mi NW 8.1 mph - N/A   Clear
1:52 AM 34.0 °F 28.0 °F 30.9 °F 89% 30.13 in 5.0 mi NW 6.9 mph - N/A   Clear
2:52 AM 33.1 °F 25.5 °F 30.9 °F 92% 30.14 in 5.0 mi NW 9.2 mph - N/A   Clear
3:52 AM 32.0 °F 23.6 °F 30.0 °F 92% 30.15 in 5.0 mi NNW 10.4 mph - N/A   Clear
4:52 AM 30.9 °F 22.8 °F 28.9 °F 92% 30.17 in 5.0 mi NW 9.2 mph - N/A   Clear
5:52 AM 30.0 °F 21.1 °F 28.0 °F 92% 30.18 in 5.0 mi NNW 10.4 mph - N/A   Clear
6:52 AM 28.0 °F 20.0 °F 26.1 °F 92% 30.19 in 4.0 mi NNW 8.1 mph - N/A   Clear
7:29 AM 26.6 °F 19.1 °F 24.8 °F 93% 30.15 in 2.5 mi NNW 6.9 mph - N/A   Clear
7:41 AM 26.6 °F 21.2 °F 24.8 °F 93% 30.15 in 3.0 mi NNW 4.6 mph - N/A   Clear
7:52 AM 27.0 °F 18.0 °F 25.0 °F 92% 30.20 in 2.5 mi WNW 9.2 mph - N/A   Clear
8:13 AM 28.4 °F 21.2 °F 26.6 °F 93% 30.18 in 3.0 mi WNW 6.9 mph - N/A   Clear
8:52 AM 33.1 °F 26.9 °F 30.0 °F 89% 30.22 in 4.0 mi WNW 6.9 mph - N/A   Clear
9:52 AM 39.0 °F 36.8 °F 35.1 °F 86% 30.22 in 5.0 mi NNW 3.5 mph - N/A   Clear
12:52 PM 55.0 °F - 30.0 °F 38% 30.16 in 10.0 mi SSW 5.8 mph - N/A   Clear
1:52 PM 57.9 °F - 25.0 °F 28% 30.15 in 10.0 mi WSW 6.9 mph - N/A   Clear
2:52 PM 59.0 °F - 21.9 °F 24% 30.12 in 10.0 mi SSW 6.9 mph - N/A   Clear
3:52 PM 57.9 °F - 24.1 °F 27% 30.13 in 10.0 mi South 5.8 mph - N/A   Clear
5:52 PM 42.1 °F 36.6 °F 25.0 °F 51% 30.13 in 10.0 mi SSE 9.2 mph - N/A   Clear
6:52 PM 39.9 °F 36.7 °F 26.1 °F 58% 30.14 in 10.0 mi South 4.6 mph - N/A   Clear
7:52 PM 37.9 °F 31.5 °F 27.0 °F 65% 30.13 in 10.0 mi South 9.2 mph - N/A   Clear
8:52 PM 39.0 °F 32.8 °F 27.0 °F 62% 30.12 in 10.0 mi South 9.2 mph - N/A   Clear
9:52 PM 41.0 °F 35.8 °F 28.9 °F 62% 30.12 in 9.0 mi SSW 8.1 mph - N/A   Clear
10:52 PM 41.0 °F 33.9 °F 28.9 °F 62% 30.09 in 10.0 mi South 12.7 mph - N/A   Clear
11:52 PM 39.0 °F 31.8 °F 30.0 °F 70% 30.06 in 10.0 mi South 11.5 mph - N/A   Clear